Location: Basse Occidentale du Courleau
(48.3833°N, 4.8333°W)
Time: 19:48:27
(UTC+00:00)

Lacrosse 5 rocket - Pass Details

Date: 05 July 2020
Orbit: 464 x 632 km, 57.0° (Epoch: 06 August)

Event Time Altitude Azimuth Distance (km) Brightness Sun altitude
Rises 21:11:36 0° 271° (W) 2,820 5.7 -6.9°
Reaches altitude 10° 21:14:08 10° 283° (WNW) 1,891 5.0 -7.2°
Maximum altitude 21:17:55 29° 345° (NNW) 1,030 3.5 -7.7°
Drops below altitude 10° 21:21:32 10° 47° (NE) 1,801 4.0 -8.1°
Sets 21:23:54 0° 59° (ENE) 2,661 4.7 -8.3°
